Total_Precipitation_Accumulation
1.41 1.49 1.33 1.18 1.04 1.30 1.56 1.59 1.44 1.52 1.50 1.59 1.56 1.51 1.44 1.06 0.81 0.77 0.87 1.23 1.25 1.18 1.25 1.34 1.29 1.18 1.14 1.01 0.89 0.78 0.66 0.62 0.58 0.52 0.44 0.36 0.32 0.27 0.22 0.12 0.07 0.03 0.02
1.32 1.36 1.29 1.19 1.14 1.31 1.48 1.51 1.45 1.61 1.65 1.61 1.33 1.23 1.19 1.15 1.03 0.86 0.92 1.16 1.25 1.10 1.13 1.31 1.38 1.35 1.39 1.29 1.11 0.98 0.82 0.70 0.58 0.46 0.42 0.39 0.33 0.27 0.29 0.32 0.36 0.12 0.02
1.04 1.15 1.15 1.13 1.17 1.22 1.26 1.24 1.24 1.41 1.35 1.23 1.08 1.02 1.02 1.00 0.99 0.95 0.87 0.91 1.04 1.08 1.02 1.12 1.21 1.23 1.33 1.39 1.33 1.14 0.94 0.76 0.60 0.43 0.34 0.34 0.31 0.22 0.20 0.28 0.34 0.17 0.07
0.79 0.87 0.84 0.88 0.94 0.99 1.00 0.96 0.98 1.07 1.12 1.19 1.17 1.02 1.07 1.07 0.99 1.04 1.06 0.93 0.93 0.92 1.15 1.26 1.24 1.18 1.28 1.41 1.44 1.35 1.10 0.83 0.66 0.51 0.38 0.31 0.28 0.23 0.18 0.19 0.20 0.18 0.11
0.70 0.76 0.74 0.73 0.71 0.74 0.76 0.72 0.79 0.88 0.93 0.99 0.96 0.95 0.93 0.91 0.85 0.85 0.99 0.87 0.87 0.93 1.08 1.19 1.28 1.23 1.33 1.47 1.65 1.78 1.56 1.11 0.80 0.67 0.61 0.52 0.40 0.29 0.24 0.25 0.20 0.16 0.14
0.61 0.60 0.57 0.54 0.50 0.52 0.55 0.59 0.67 0.76 0.78 0.83 0.78 0.78 0.77 0.69 0.67 0.69 0.67 0.68 0.73 0.72 0.84 1.02 1.15 1.00 1.17 1.38 1.59 1.79 1.80 1.59 1.20 0.89 0.80 0.72 0.61 0.42 0.25 0.22 0.22 0.20 0.17
0.52 0.47 0.41 0.40 0.37 0.36 0.38 0.40 0.47 0.55 0.59 0.67 0.74 0.71 0.64 0.59 0.58 0.57 0.54 0.52 0.54 0.66 0.78 0.92 0.98 0.96 0.86 0.92 0.96 1.17 1.50 1.77 1.63 1.25 0.99 0.84 0.77 0.57 0.33 0.24 0.22 0.23 0.20
0.40 0.39 0.37 0.36 0.35 0.34 0.34 0.36 0.41 0.45 0.47 0.54 0.60 0.59 0.53 0.50 0.52 0.45 0.51 0.51 0.51 0.66 0.76 0.76 0.82 0.88 0.74 0.80 0.65 0.73 1.05 1.36 1.64 1.61 1.31 1.00 0.86 0.70 0.51 0.38 0.28 0.24 0.22
0.26 0.29 0.33 0.36 0.35 0.31 0.30 0.32 0.34 0.35 0.35 0.38 0.48 0.53 0.48 0.42 0.39 0.39 0.43 0.47 0.53 0.61 0.63 0.72 0.69 0.66 0.70 0.70 0.66 0.63 0.86 0.97 1.31 1.66 1.63 1.35 1.07 0.86 0.72 0.60 0.47 0.32 0.25
0.16 0.18 0.24 0.29 0.30 0.31 0.31 0.25 0.26 0.31 0.32 0.28 0.32 0.40 0.37 0.38 0.42 0.40 0.39 0.45 0.53 0.52 0.51 0.55 0.56 0.58 0.61 0.64 0.63 0.57 0.55 0.68 1.02 1.43 1.65 1.60 1.39 1.09 0.94 0.90 0.99 0.85 0.56
0.20 0.17 0.17 0.22 0.27 0.33 0.38 0.34 0.32 0.30 0.29 0.26 0.26 0.33 0.34 0.30 0.35 0.41 0.39 0.40 0.44 0.38 0.36 0.37 0.38 0.44 0.48 0.54 0.62 0.59 0.51 0.59 0.75 1.02 1.26 1.43 1.44 1.34 1.20 1.18 1.43 1.55 1.34
0.28 0.27 0.27 0.30 0.33 0.33 0.34 0.36 0.39 0.38 0.36 0.33 0.26 0.29 0.42 0.39 0.29 0.34 0.35 0.38 0.39 0.28 0.30 0.34 0.36 0.39 0.46 0.56 0.57 0.52 0.60 0.68 0.69 0.73 0.86 1.01 1.15 1.24 1.29 1.38 1.53 1.73 1.76
0.27 0.29 0.29 0.33 0.37 0.37 0.34 0.32 0.33 0.39 0.45 0.45 0.35 0.27 0.30 0.42 0.37 0.31 0.31 0.30 0.33 0.33 0.36 0.39 0.43 0.50 0.59 0.79 0.70 0.63 0.62 0.67 0.68 0.67 0.67 0.69 0.77 0.87 0.97 1.13 1.33 1.54 1.73
0.29 0.27 0.25 0.25 0.28 0.31 0.32 0.30 0.26 0.27 0.34 0.43 0.45 0.46 0.41 0.35 0.42 0.37 0.31 0.33 0.38 0.43 0.50 0.51 0.60 0.69 0.81 0.90 0.90 0.73 0.56 0.48 0.43 0.44 0.44 0.45 0.49 0.55 0.65 0.75 0.88 1.05 1.18
0.26 0.24 0.22 0.20 0.20 0.23 0.26 0.28 0.26 0.27 0.27 0.28 0.36 0.49 0.51 0.41 0.38 0.39 0.38 0.43 0.56 0.54 0.56 0.68 0.84 0.90 0.84 0.85 0.77 0.65 0.48 0.43 0.38 0.34 0.33 0.34 0.35 0.38 0.43 0.47 0.52 0.62 0.73
0.21 0.20 0.17 0.14 0.14 0.15 0.17 0.22 0.25 0.28 0.33 0.36 0.37 0.43 0.54 0.58 0.51 0.48 0.48 0.53 0.66 0.66 0.66 0.72 0.85 0.88 0.77 0.62 0.57 0.58 0.49 0.47 0.42 0.34 0.29 0.29 0.31 0.32 0.31 0.34 0.33 0.34 0.38
0.20 0.20 0.17 0.15 0.12 0.12 0.15 0.18 0.21 0.27 0.33 0.42 0.51 0.51 0.50 0.62 0.70 0.65 0.63 0.64 0.68 0.74 0.73 0.70 0.83 0.87 0.76 0.57 0.49 0.51 0.52 0.53 0.44 0.39 0.32 0.28 0.29 0.30 0.30 0.31 0.32 0.30 0.28
0.21 0.21 0.20 0.17 0.12 0.10 0.12 0.14 0.16 0.21 0.29 0.39 0.55 0.71 0.72 0.67 0.65 0.64 0.63 0.64 0.70 0.81 0.82 0.73 0.78 0.86 0.82 0.72 0.60 0.52 0.45 0.46 0.49 0.49 0.42 0.36 0.32 0.31 0.29 0.29 0.29 0.29 0.30
0.16 0.19 0.19 0.18 0.16 0.14 0.13 0.11 0.12 0.15 0.19 0.25 0.38 0.61 0.80 0.93 0.85 0.67 0.58 0.56 0.64 0.78 0.87 0.83 0.83 0.95 0.98 0.88 0.72 0.56 0.46 0.43 0.42 0.45 0.46 0.41 0.36 0.34 0.32 0.29 0.28 0.27 0.24
0.09 0.14 0.18 0.20 0.18 0.16 0.14 0.13 0.14 0.15 0.16 0.19 0.26 0.36 0.49 0.69 0.86 0.91 0.78 0.65 0.64 0.71 0.80 0.84 0.96 1.18 1.21 1.09 0.83 0.66 0.58 0.49 0.44 0.38 0.37 0.37 0.36 0.33 0.31 0.31 0.28 0.25 0.24
0.08 0.13 0.19 0.21 0.20 0.18 0.13 0.14 0.17 0.15 0.17 0.18 0.20 0.25 0.28 0.36 0.49 0.65 0.76 0.81 0.78 0.73 0.78 0.86 1.09 1.51 1.54 1.29 0.92 0.73 0.67 0.64 0.54 0.46 0.39 0.32 0.30 0.27 0.26 0.29 0.31 0.29 0.26
0.12 0.15 0.19 0.24 0.24 0.17 0.12 0.11 0.13 0.17 0.21 0.25 0.26 0.26 0.23 0.22 0.25 0.35 0.47 0.61 0.75 0.79 0.80 0.86 1.06 1.38 1.54 1.43 1.18 0.97 0.76 0.63 0.58 0.54 0.47 0.44 0.39 0.34 0.29 0.25 0.27 0.28 0.28
0.17 0.18 0.20 0.27 0.31 0.31 0.21 0.13 0.10 0.15 0.21 0.26 0.32 0.35 0.25 0.15 0.20 0.25 0.31 0.38 0.47 0.57 0.70 0.80 0.94 1.16 1.45 1.58 1.41 1.06 0.89 0.80 0.65 0.58 0.56 0.54 0.51 0.45 0.39 0.34 0.36 0.30 0.29
0.22 0.22 0.23 0.28 0.37 0.38 0.31 0.21 0.15 0.17 0.23 0.27 0.32 0.36 0.34 0.28 0.26 0.28 0.31 0.31 0.32 0.36 0.43 0.55 0.70 0.94 1.23 1.55 1.68 1.44 1.23 1.09 0.90 0.78 0.63 0.58 0.59 0.52 0.45 0.40 0.43 0.37 0.31
0.27 0.26 0.25 0.29 0.37 0.43 0.37 0.26 0.23 0.24 0.27 0.29 0.32 0.36 0.39 0.37 0.27 0.21 0.26 0.27 0.28 0.30 0.32 0.38 0.50 0.69 0.95 1.25 1.57 1.69 1.41 1.08 0.95 0.80 0.67 0.57 0.54 0.58 0.57 0.46 0.44 0.47 0.39
0.34 0.30 0.25 0.29 0.34 0.45 0.45 0.31 0.27 0.28 0.31 0.35 0.46 0.50 0.45 0.39 0.32 0.21 0.23 0.27 0.26 0.26 0.30 0.31 0.34 0.45 0.62 0.87 1.19 1.37 1.38 1.09 0.87 0.77 0.57 0.49 0.49 0.51 0.56 0.50 0.40 0.39 0.39